Regional Weather Roundup
Issued by NWS

Home | Current Version | Previous Version | Graphics & Text | Print | Product List | Glossary On
Versions: 1 2 3 4 5 6 7 8 9 10 11 12 13 14 15 16 17 18 19 20 21 22 23 24 25 26 27 28
000
ASUS45 KGTF 051010
RWRMT
MONTANA HOURLY WEATHER ROUNDUP
NATIONAL WEATHER SERVICE GREAT FALLS MT
400 AM MDT TUE MAY 05 2015

NOTE: "FAIR" INDICATES FEW OR NO CLOUDS BELOW 12000 FEET WITH NO
SIGNIFICANT WEATHER AND/OR OBSTRUCTIONS TO VISIBILITY.

MTZ001>007-043-051100-
WEST OF THE DIVIDE

CITY           SKY/WX    TMP DP  RH WIND       PRES   REMARKS
KALISPELL      CLOUDY    46  37  71 NW6       29.78F
MISSOULA       PTCLDY    52  36  54 N6        29.85R
BUTTE          MOCLDY    38  29  70 E5        29.87F
DEER LODGE       N/A     45  32  61 CALM      29.88R
EUREKA           N/A     46  30  53 S3        29.77S
HAMILTON         N/A     48  34  57 SW3       29.84S
LIBBY            N/A     39  30  70 CALM      29.80R
$$

MTZ008-052>055-051100-
SOUTHWEST MONTANA

CITY           SKY/WX    TMP DP  RH WIND       PRES   REMARKS
BOZEMAN        PTCLDY    40  34  79 VRB3      29.84R
DILLON         CLEAR     49  32  52 SW9       29.85S
$$

MTZ009-010-012-014-046-048-049-054-051100-
EAST SLOPES AND CENTRAL MONTANA

CITY           SKY/WX    TMP DP  RH WIND       PRES   REMARKS
CUT BANK       MOCLDY    50  26  39 W13       29.78S
GREAT FALLS    PTCLDY    55  35  47 S9        29.76F
MALMSTROM AFB  PTCLDY    50  35  57 S10       29.76F
HELENA         CLEAR     51  29  42 CALM      29.79S
$$

MTZ011-013-016-021-045-047-050-051-051100-
NORTH CENTRAL MONTANA

CITY           SKY/WX    TMP DP  RH WIND       PRES   REMARKS
HAVRE          PTCLDY    41  35  79 CALM      29.74S
LEWISTOWN      CLEAR     46  36  68 SE7       29.82F
CHINOOK          N/A     52  43  71 E8        29.75S
FORT BENTON      N/A     46  37  71 CALM      29.76S
$$

MTZ017>020-022>042-056>058-061-062-051100-
EASTERN PLAINS

CITY           SKY/WX    TMP DP  RH WIND       PRES   REMARKS
BAKER          CLEAR     42  31  64 SE12      29.96F
BILLINGS       PTCLDY    49  41  74 W3        29.83R
GLASGOW        CLEAR     45  35  68 E15       29.83F
JORDAN           N/A     47  37  68 E8        29.83F
LIVINGSTON     PTCLDY    43  36  76 NW5       29.86F
MILES CITY     CLEAR     51  34  52 SE16      29.87F
SIDNEY         CLEAR     46  28  49 SE9       29.96S
WOLF POINT     CLEAR     49  34  56 SE5       29.90R
BIG TIMBER       N/A     45  39  81 SW7       29.86S
FORSYTH          N/A     50  37  62 E5        29.85S
PLENTYWOOD       N/A     45  30  57 SE10      29.94S
POPLAR           N/A     48  34  57 E14       29.90S
$$

REGIONAL REPORTS...DAKOTAS

CITY           SKY/WX    TMP DP  RH WIND       PRES   REMARKS
WILLISTON      CLEAR     50  28  42 S8        29.97F
MINOT          CLOUDY    55  27  34 SE12      30.05S
DICKINSON      CLEAR     42  27  55 SE8       29.99F
BEACH          FAIR      39  28  65 SE14      29.97F WCI  31
CROSBY         FAIR      46  30  53 S12       29.98S
WATFORD CITY   FAIR      52  25  35 S17G24    29.97S
BISMARCK       MOCLDY    50  28  42 E9        30.08F
GRAND FORKS    CLEAR     37  26  64 S6        30.16S
FARGO          CLEAR     49  29  46 SE8       30.17S
BUFFALO SD       N/A     41  28  60 SE7       29.92F
RAPID CITY     CLEAR     40  34  79 SE5       30.02F
$$

REGIONAL REPORTS...WYOMING/IDAHO/WASHINGTON

CITY           SKY/WX    TMP DP  RH WIND       PRES   REMARKS
GILLETTE       PTCLDY    44  35  70 S18       29.94F
SHERIDAN       PTCLDY    42  39  89 W5        29.88S
BUFFALO WY     MOCLDY    45  41  86 S7        29.91S
CODY           CLEAR     48  39  71 SE5       29.89S
YELLOWSTONE LA   N/A     29  26  89 NW3       30.05F
IDAHO FALLS    PTCLDY    47  40  76 CALM      29.87F
SALMON           N/A     43  32  65 CALM      29.83S
BOISE          MOCLDY    60  37  42 W7        29.79R
SPOKANE        PTCLDY    46  31  55 S15       29.87R
$$

REGIONAL REPORTS...ALBERTA

CITY           SKY/WX    TMP DP  RH WIND       PRES   REMARKS
EDMONTON       PTCLDY    45  30  57 E23       29.76S
CALGARY        PTCLDY    41  27  56 SW6       29.67F
LETHBRIDGE     CLEAR     39  30  70 W9        29.71S
MEDICINE HAT   CLEAR     41  32  70 VRB2      29.69S
$$

REGIONAL REPORTS...SASKATCHEWAN

CITY           SKY/WX    TMP DP  RH WIND       PRES   REMARKS
SWIFT CURRENT  CLEAR     48  41  76 S17       29.75F
REGINA         CLOUDY    50  37  62 SE15      29.91F
SASKATOON      CLEAR     45  36  70 E10G17    29.85F
$$



USA.gov is the U.S. government's official web portal to all federal, state and local government web resources and services.